Time,TemperatureF,DewpointF,PressureIn,WindDirection,WindDirectionDegrees,WindSpeedMPH,WindSpeedGustMPH,Humidity,HourlyPrecipIn,Conditions,Clouds,dailyrainin,SoftwareType,DateUTC
2013-07-29 00:09:00,66.0,63.0,29.98,ENE,69,0.0,-999.0,91,-99.99,,,0.00,weatherlink.com 1.10,2013-07-29 04:09:00,
2013-07-29 00:24:00,66.1,64.0,29.98,ENE,69,0.0,-999.0,91,-99.99,,,0.00,weatherlink.com 1.10,2013-07-29 04:24:00,
2013-07-29 00:39:00,66.0,63.0,29.97,ENE,69,0.0,-999.0,91,-99.99,,,0.00,weatherlink.com 1.10,2013-07-29 04:39:00,
2013-07-29 00:54:00,66.1,64.0,29.97,ENE,69,0.0,-999.0,91,-99.99,,,0.00,weatherlink.com 1.10,2013-07-29 04:54:00,
2013-07-29 01:09:00,65.9,63.0,29.97,ENE,69,0.0,-999.0,91,-99.99,,,0.00,weatherlink.com 1.10,2013-07-29 05:09:00,
2013-07-29 01:24:00,65.9,63.0,29.96,ENE,69,0.0,-999.0,91,-99.99,,,0.00,weatherlink.com 1.10,2013-07-29 05:24:00,
2013-07-29 01:39:00,65.9,63.0,29.95,ENE,73,0.0,-999.0,91,-99.99,,,0.00,weatherlink.com 1.10,2013-07-29 05:39:00,
2013-07-29 01:54:00,66.0,63.0,29.95,ENE,73,0.0,-999.0,91,-99.99,,,0.00,weatherlink.com 1.10,2013-07-29 05:54:00,
2013-07-29 02:09:00,66.1,64.0,29.95,ENE,73,0.0,-999.0,91,-99.99,,,0.00,weatherlink.com 1.10,2013-07-29 06:09:00,
2013-07-29 02:24:00,66.1,64.0,29.96,ENE,73,0.0,-999.0,91,-99.99,,,0.00,weatherlink.com 1.10,2013-07-29 06:24:00,
2013-07-29 02:39:00,66.1,64.0,29.95,ENE,73,0.0,-999.0,91,-99.99,,,0.00,weatherlink.com 1.10,2013-07-29 06:39:00,
2013-07-29 02:54:00,65.9,64.0,29.94,ENE,73,0.0,-999.0,92,-99.99,,,0.00,weatherlink.com 1.10,2013-07-29 06:54:00,
2013-07-29 03:09:00,65.9,64.0,29.94,ENE,73,0.0,-999.0,92,-99.99,,,0.00,weatherlink.com 1.10,2013-07-29 07:09:00,
2013-07-29 03:24:00,65.8,64.0,29.95,ENE,73,0.0,-999.0,92,-99.99,,,0.00,weatherlink.com 1.10,2013-07-29 07:24:00,
2013-07-29 03:39:00,65.9,64.0,29.95,ENE,73,0.0,-999.0,92,-99.99,,,0.00,weatherlink.com 1.10,2013-07-29 07:39:00,
2013-07-29 03:54:00,66.0,64.0,29.96,ENE,73,0.0,-999.0,92,-99.99,,,0.00,weatherlink.com 1.10,2013-07-29 07:54:00,
2013-07-29 04:09:00,66.1,64.0,29.96,ENE,73,0.0,-999.0,92,-99.99,,,0.00,weatherlink.com 1.10,2013-07-29 08:09:00,
2013-07-29 04:24:00,66.2,64.0,29.97,ENE,73,0.0,-999.0,91,-99.99,,,0.00,weatherlink.com 1.10,2013-07-29 08:24:00,
2013-07-29 04:39:00,66.2,64.0,29.95,ENE,73,0.0,-999.0,91,-99.99,,,0.00,weatherlink.com 1.10,2013-07-29 08:39:00,
2013-07-29 04:54:00,66.0,63.0,29.96,ENE,73,0.0,-999.0,91,-99.99,,,0.00,weatherlink.com 1.10,2013-07-29 08:54:00,
2013-07-29 05:09:00,65.6,63.0,29.96,ENE,73,0.0,-999.0,91,-99.99,,,0.00,weatherlink.com 1.10,2013-07-29 09:09:00,
2013-07-29 05:24:00,65.2,63.0,29.95,ENE,73,0.0,-999.0,92,-99.99,,,0.00,weatherlink.com 1.10,2013-07-29 09:24:00,
2013-07-29 05:39:00,65.8,64.0,29.96,ENE,73,0.0,-999.0,92,-99.99,,,0.00,weatherlink.com 1.10,2013-07-29 09:39:00,
2013-07-29 05:54:00,66.2,64.0,29.96,ENE,73,0.0,-999.0,91,-99.99,,,0.00,weatherlink.com 1.10,2013-07-29 09:54:00,
2013-07-29 06:09:00,66.3,64.0,29.97,ENE,73,0.0,-999.0,92,-99.99,,,0.00,weatherlink.com 1.10,2013-07-29 10:09:00,
2013-07-29 06:24:00,66.7,64.0,29.97,ENE,73,0.0,-999.0,91,-99.99,,,0.00,weatherlink.com 1.10,2013-07-29 10:24:00,
2013-07-29 06:39:00,67.3,65.0,29.97,ENE,73,0.0,-999.0,92,-99.99,,,0.00,weatherlink.com 1.10,2013-07-29 10:39:00,
2013-07-29 07:39:00,69.6,67.0,29.96,ENE,73,0.0,-999.0,91,-99.99,,,0.01,weatherlink.com 1.10,2013-07-29 11:39:00,
2013-07-29 07:54:00,70.5,68.0,29.97,ESE,117,0.0,-999.0,91,-99.99,,,0.01,weatherlink.com 1.10,2013-07-29 11:54:00,
2013-07-29 08:09:00,71.3,68.0,29.97,South,182,0.0,-999.0,90,-99.99,,,0.01,weatherlink.com 1.10,2013-07-29 12:09:00,
2013-07-29 08:24:00,71.7,68.0,29.97,SSW,212,0.0,-999.0,89,-99.99,,,0.01,weatherlink.com 1.10,2013-07-29 12:24:00,
2013-07-29 08:39:00,71.7,68.0,29.97,SW,217,0.0,-999.0,89,-99.99,,,0.01,weatherlink.com 1.10,2013-07-29 12:39:00,
2013-07-29 08:54:00,72.3,69.0,29.98,SSW,213,0.0,-999.0,88,-99.99,,,0.01,weatherlink.com 1.10,2013-07-29 12:54:00,
2013-07-29 09:09:00,72.5,69.0,29.97,SSW,213,0.0,-999.0,88,-99.99,,,0.01,weatherlink.com 1.10,2013-07-29 13:09:00,
2013-07-29 09:24:00,72.4,69.0,29.98,WSW,242,0.0,-999.0,88,-99.99,,,0.01,weatherlink.com 1.10,2013-07-29 13:24:00,
2013-07-29 09:39:00,72.9,69.0,29.98,SSW,207,0.0,-999.0,88,-99.99,,,0.01,weatherlink.com 1.10,2013-07-29 13:39:00,
2013-07-29 09:54:00,73.9,70.0,29.98,SW,223,0.0,-999.0,87,-99.99,,,0.01,weatherlink.com 1.10,2013-07-29 13:54:00,
2013-07-29 10:09:00,75.5,71.0,29.98,SSW,207,0.0,-999.0,85,-99.99,,,0.01,weatherlink.com 1.10,2013-07-29 14:09:00,
2013-07-29 10:24:00,74.5,70.0,29.98,SW,231,0.0,-999.0,85,-99.99,,,0.01,weatherlink.com 1.10,2013-07-29 14:24:00,
2013-07-29 10:54:00,75.8,71.0,29.98,SSW,208,0.0,-999.0,85,-99.99,,,0.01,weatherlink.com 1.10,2013-07-29 14:54:00,
2013-07-29 11:24:00,76.9,71.0,29.98,SSW,194,0.0,-999.0,83,-99.99,,,0.01,weatherlink.com 1.10,2013-07-29 15:24:00,
2013-07-29 11:54:00,78.9,71.0,29.97,WSW,247,0.0,-999.0,76,-99.99,,,0.01,weatherlink.com 1.10,2013-07-29 15:54:00,
2013-07-29 12:09:00,79.0,71.0,29.96,SSW,201,0.0,-999.0,77,-99.99,,,0.01,weatherlink.com 1.10,2013-07-29 16:09:00,
2013-07-29 12:24:00,78.7,71.0,29.96,SW,229,0.0,-999.0,78,-99.99,,,0.01,weatherlink.com 1.10,2013-07-29 16:24:00,
2013-07-29 12:39:00,80.2,74.0,29.96,South,169,0.0,-999.0,80,-99.99,,,0.01,weatherlink.com 1.10,2013-07-29 16:39:00,
2013-07-29 12:54:00,81.7,73.0,29.96,South,187,0.0,-999.0,76,-99.99,,,0.01,weatherlink.com 1.10,2013-07-29 16:54:00,
2013-07-29 13:24:00,82.9,75.0,29.95,ESE,114,0.0,-999.0,78,-99.99,,,0.01,weatherlink.com 1.10,2013-07-29 17:24:00,
2013-07-29 13:39:00,83.4,74.0,29.96,WSW,250,0.0,-999.0,73,-99.99,,,0.01,weatherlink.com 1.10,2013-07-29 17:39:00,
2013-07-29 13:54:00,79.7,73.0,29.96,ESE,123,0.0,-999.0,80,-99.99,,,0.01,weatherlink.com 1.10,2013-07-29 17:54:00,
2013-07-29 14:24:00,82.0,75.0,29.95,SSW,199,0.0,-999.0,80,-99.99,,,0.01,weatherlink.com 1.10,2013-07-29 18:24:00,
2013-07-29 14:39:00,82.2,77.0,29.94,ESE,115,0.0,-999.0,85,-99.99,,,0.01,weatherlink.com 1.10,2013-07-29 18:39:00,
2013-07-29 14:54:00,83.0,76.0,29.93,SSE,167,0.0,-999.0,80,-99.99,,,0.01,weatherlink.com 1.10,2013-07-29 18:54:00,
2013-07-29 15:09:00,82.9,77.0,29.93,SE,136,0.0,-999.0,81,-99.99,,,0.01,weatherlink.com 1.10,2013-07-29 19:09:00,
2013-07-29 15:24:00,82.7,72.0,29.93,SSW,192,0.0,-999.0,71,-99.99,,,0.01,weatherlink.com 1.10,2013-07-29 19:24:00,
2013-07-29 15:54:00,80.6,73.0,29.92,East,92,0.0,-999.0,78,-99.99,,,0.01,weatherlink.com 1.10,2013-07-29 19:54:00,
2013-07-29 16:09:00,78.2,73.0,29.92,SSE,164,0.0,-999.0,85,-99.99,,,0.01,weatherlink.com 1.10,2013-07-29 20:09:00,
2013-07-29 16:24:00,76.2,73.0,29.91,SSE,152,0.0,-999.0,88,-99.99,,,0.01,weatherlink.com 1.10,2013-07-29 20:24:00,
2013-07-29 16:39:00,73.8,70.0,29.94,West,281,0.0,-999.0,88,-99.99,,,0.01,weatherlink.com 1.10,2013-07-29 20:39:00,
2013-07-29 17:09:00,71.3,68.0,29.92,SW,217,0.0,-999.0,90,-99.99,,,0.01,weatherlink.com 1.10,2013-07-29 21:09:00,
2013-07-29 17:39:00,73.1,70.0,29.92,SW,217,0.0,-999.0,90,-99.99,,,0.01,weatherlink.com 1.10,2013-07-29 21:39:00,
2013-07-29 17:54:00,75.3,72.0,29.92,SW,217,0.0,-999.0,89,-99.99,,,0.01,weatherlink.com 1.10,2013-07-29 21:54:00,
2013-07-29 18:09:00,75.5,72.0,29.92,SSE,166,0.0,-999.0,89,-99.99,,,0.01,weatherlink.com 1.10,2013-07-29 22:09:00,
2013-07-29 18:24:00,75.8,72.0,29.92,SSE,166,0.0,-999.0,89,-99.99,,,0.01,weatherlink.com 1.10,2013-07-29 22:24:00,
2013-07-29 18:39:00,75.0,72.0,29.92,SE,126,0.0,-999.0,89,-99.99,,,0.01,weatherlink.com 1.10,2013-07-29 22:39:00,
2013-07-29 18:54:00,74.5,71.0,29.92,SE,133,0.0,-999.0,89,-99.99,,,0.01,weatherlink.com 1.10,2013-07-29 22:54:00,
2013-07-29 19:09:00,74.2,71.0,29.92,SE,133,0.0,-999.0,89,-99.99,,,0.01,weatherlink.com 1.10,2013-07-29 23:09:00,
2013-07-29 19:24:00,73.7,70.0,29.93,SE,133,0.0,-999.0,89,-99.99,,,0.01,weatherlink.com 1.10,2013-07-29 23:24:00,
2013-07-29 19:39:00,72.8,70.0,29.94,SE,140,0.0,-999.0,89,-99.99,,,0.01,weatherlink.com 1.10,2013-07-29 23:39:00,
2013-07-29 19:54:00,71.5,68.0,29.95,South,180,0.0,-999.0,89,-99.99,,,0.01,weatherlink.com 1.10,2013-07-29 23:54:00,
2013-07-29 20:09:00,70.1,67.0,29.95,South,180,0.0,-999.0,89,-99.99,,,0.01,weatherlink.com 1.10,2013-07-30 00:09:00,
2013-07-29 20:24:00,69.5,67.0,29.95,South,180,0.0,-999.0,90,-99.99,,,0.01,weatherlink.com 1.10,2013-07-30 00:24:00,
2013-07-29 20:54:00,68.6,66.0,29.97,South,180,0.0,-999.0,90,-99.99,,,0.01,weatherlink.com 1.10,2013-07-30 00:54:00,
2013-07-29 21:09:00,68.0,65.0,29.97,South,180,0.0,-999.0,90,-99.99,,,0.01,weatherlink.com 1.10,2013-07-30 01:09:00,
2013-07-29 21:39:00,67.5,65.0,29.98,South,179,0.0,-999.0,90,-99.99,,,0.01,weatherlink.com 1.10,2013-07-30 01:39:00,
2013-07-29 21:54:00,67.0,64.0,29.98,South,179,0.0,-999.0,90,-99.99,,,0.01,weatherlink.com 1.10,2013-07-30 01:54:00,
2013-07-29 22:09:00,66.3,63.0,29.97,South,179,0.0,-999.0,90,-99.99,,,0.01,weatherlink.com 1.10,2013-07-30 02:09:00,
2013-07-29 22:39:00,66.0,63.0,29.99,North,360,0.0,-999.0,91,-99.99,,,0.01,weatherlink.com 1.10,2013-07-30 02:39:00,
2013-07-29 23:09:00,66.2,64.0,29.99,NNW,344,0.0,-999.0,92,-99.99,,,0.01,weatherlink.com 1.10,2013-07-30 03:09:00,
2013-07-29 23:24:00,65.8,63.0,30.00,NNW,344,0.0,-999.0,91,-99.99,,,0.01,weatherlink.com 1.10,2013-07-30 03:24:00,
2013-07-29 23:54:00,66.0,63.0,30.00,NNW,344,0.0,-999.0,91,-99.99,,,0.01,weatherlink.com 1.10,2013-07-30 03:54:00,